Location: Unspecified
(0.0000°N, 0.0000°E)
Time: 10:25:14
(UTC+00:00)

NNS O-29 - Pass Details

Date: 08 August 2024
Orbit: 1013 x 1173 km, 90.4° (Epoch: 07 September)

Event Time Altitude Azimuth Distance (km) Brightness Sun altitude
Rises 19:14:29 0° 352° (N) 3,816 10.4 -16.6°
Reaches altitude 10° 19:17:09 10° 347° (NNW) 2,844 9.8 -17.2°
Maximum altitude 19:23:17 47° 275° (W) 1,324 8.1 -18.7°
Drops below altitude 10° 19:29:21 10° 202° (SSW) 2,797 9.5 -20.1°
Sets 19:31:57 0° 196° (SSW) 3,747 10.1 -20.7°
